Weather History for KACV - May, 2013

Change the Weather History Date:

Wednesday, May 8, 2013

  Actual Average Record
Temperature  
Mean Temperature 50 °F -  
Max Temperature 54 °F 56 °F 62 °F (2004)
Min Temperature 48 °F 41 °F 32 °F (2002)
Degree Days  
Heating Degree Days 14    
Moisture  
Dew Point 49 °F    
Average Humidity 94    
Maximum Humidity 100    
Minimum Humidity 82    
Precipitation  
Precipitation 0.01 in - - ()
Sea Level Pressure  
Sea Level Pressure 30.13 in    
Wind  
Wind Speed 3 mph (NW)    
Max Wind Speed 9 mph    
Max Gust Speed -    
Visibility 7 miles    
Events Fog    
Averages and records for this station are not official NWS values.
T = Trace of Precipitation, MM = Missing Value Source: NWS Daily Summary

Daily Weather History Graph

Daily Weather History Graph

Search for Another Location

Airport or City:

Trip Planner

Search our weather history database for the weather conditions in past years. The results will help you decide how hot, cold, wet, or windy it might be!

Date:

Astronomy

May. 08, 2013 Rise Set
Actual Time 6:05 AM PDT 8:20 PM PDT
Civil Twilight 5:35 AM PDT 8:51 PM PDT
Nautical Twilight 4:57 AM PDT 9:29 PM PDT
Astronomical Twilight 4:16 AM PDT 10:10 PM PDT
Moon 5:17 AM PDT (5/8) 7:24 PM PDT (5/8)
Length of Visible Light 15h 16m
Length of Day
14h 15m
Waning Crescent, 1% of the Moon is Illuminated
May 8
Waning Crescent
May 9
New
May 17
First Quarter
May 24
Full
May 31
Last Quarter

Hourly Weather History & Observations

Time (PDT) Temp. Dew Point Humidity Pressure Visibility Wind Dir Wind Speed Gust Speed Precip Events Conditions
12:53 AM 50.0 °F 50.0 °F 100% 30.12 in 9.0 mi Calm Calm - N/A   Overcast
1:33 AM 50.0 °F 50.0 °F 100% 30.10 in 2.5 mi West 3.5 mph - N/A   Overcast
1:48 AM 50.0 °F 50.0 °F 100% 30.09 in 1.0 mi West 3.5 mph - N/A   Mist
1:53 AM 50.0 °F 50.0 °F 100% 30.11 in 0.8 mi WNW 3.5 mph - N/A   Mist
2:00 AM 50.0 °F 50.0 °F 100% 30.09 in 1.0 mi Calm Calm - N/A   Mist
2:53 AM 48.9 °F 48.9 °F 100% 30.10 in 0.8 mi WNW 3.5 mph - N/A   Mist
3:06 AM 48.2 °F 48.2 °F 100% 30.08 in 1.0 mi WNW 3.5 mph - N/A   Mist
3:53 AM 48.9 °F 48.9 °F 100% 30.11 in 2.0 mi NNW 3.5 mph - N/A   Overcast
4:15 AM 48.2 °F 48.2 °F 100% 30.09 in 1.8 mi Calm Calm - N/A   Overcast
4:53 AM 48.9 °F 48.9 °F 100% 30.11 in 0.8 mi Calm Calm - N/A   Mist
5:24 AM 48.2 °F 48.2 °F 100% 30.09 in 0.2 mi NNW 4.6 mph - 0.01 in Fog Fog
5:30 AM 48.2 °F 48.2 °F 100% 30.09 in 0.5 mi NNW 3.5 mph - 0.01 in Fog Fog
5:39 AM 48.2 °F 48.2 °F 100% 30.09 in 0.8 mi Calm Calm - 0.01 in   Mist
5:48 AM 48.2 °F 48.2 °F 100% 30.09 in 2.0 mi Calm Calm - 0.01 in   Overcast
5:53 AM 48.9 °F 48.9 °F 100% 30.11 in 2.5 mi Calm Calm - 0.01 in   Overcast
6:04 AM 48.2 °F 48.2 °F 100% 30.09 in 3.0 mi Calm Calm - N/A   Overcast
6:45 AM 48.2 °F 48.2 °F 100% 30.10 in 10.0 mi Calm Calm - N/A   Overcast
6:53 AM 50.0 °F 50.0 °F 100% 30.12 in 10.0 mi Calm Calm - N/A   Overcast
7:53 AM 50.0 °F 50.0 °F 100% 30.13 in 10.0 mi NNW 3.5 mph - N/A   Overcast
8:53 AM 52.0 °F 50.0 °F 93% 30.13 in 10.0 mi Calm Calm - N/A   Overcast
9:06 AM 53.6 °F 48.2 °F 82% 30.12 in 10.0 mi NNW 4.6 mph - N/A   Overcast
9:53 AM 53.1 °F 50.0 °F 89% 30.14 in 10.0 mi WNW 6.9 mph - N/A   Overcast
10:00 AM 51.8 °F 50.0 °F 94% 30.12 in 10.0 mi NW 6.9 mph - N/A   Overcast
10:40 AM 51.8 °F 50.0 °F 94% 30.13 in 10.0 mi NW 8.1 mph - N/A   Overcast
10:53 AM 52.0 °F 50.0 °F 93% 30.15 in 10.0 mi WNW 6.9 mph - N/A   Overcast
11:11 AM 51.8 °F 50.0 °F 94% 30.13 in 10.0 mi WNW 5.8 mph - N/A   Overcast
11:53 AM 53.1 °F 50.0 °F 89% 30.16 in 10.0 mi WNW 9.2 mph - N/A   Overcast
12:53 PM 53.1 °F 48.9 °F 86% 30.16 in 10.0 mi WNW 6.9 mph - N/A   Overcast
1:53 PM 53.1 °F 48.9 °F 86% 30.17 in 10.0 mi NW 5.8 mph - N/A   Overcast
2:53 PM 53.1 °F 48.9 °F 86% 30.18 in 10.0 mi NNW 6.9 mph - N/A   Overcast
3:53 PM 53.1 °F 48.9 °F 86% 30.17 in 10.0 mi NNW 5.8 mph - N/A   Overcast
4:53 PM 53.1 °F 48.0 °F 83% 30.17 in 10.0 mi NNW 6.9 mph - N/A   Overcast
5:53 PM 53.1 °F 48.0 °F 83% 30.17 in 10.0 mi NNW 6.9 mph - N/A   Overcast
6:53 PM 52.0 °F 46.9 °F 83% 30.18 in 10.0 mi NNW 6.9 mph - N/A   Overcast
7:53 PM 51.1 °F 46.9 °F 86% 30.17 in 10.0 mi NNW 6.9 mph - N/A   Overcast
8:53 PM 51.1 °F 48.0 °F 89% 30.18 in 10.0 mi NNW 8.1 mph - N/A   Overcast
9:53 PM 51.1 °F 48.0 °F 89% 30.19 in 10.0 mi NNW 4.6 mph - N/A   Overcast
10:53 PM 51.1 °F 48.0 °F 89% 30.18 in 10.0 mi NNW 4.6 mph - N/A   Overcast
11:53 PM 51.1 °F 48.0 °F 89% 30.18 in 10.0 mi North 3.5 mph - N/A   Overcast